Regional Weather Roundup
Issued by NWS

Home | Current Version | Previous Version | Graphics & Text | Print | Product List | Glossary On
Versions: 1 2 3 4 5 6 7 8 9 10 11 12 13 14 15 16 17 18 19 20 21 22 23 24 25 26 27 28 29 30 31 32 33 34 35 36 37 38 39 40 41 42 43 44 45 46 47 48 49 50
000
ASUS43 KLSX 181807
RWRMO

WEATHER SUMMARY FOR MISSOURI
NATIONAL WEATHER SERVICE SPRINGFIELD MO
100 PM CDT FRI APR 18 2014

NOTE: "FAIR" INDICATES FEW OR NO CLOUDS BELOW 12,000 FEET WITH NO
       SIGNIFICANT WEATHER AND/OR OBSTRUCTIONS TO VISIBILITY.
       CURRENT SKY AND/OR WEATHER CONDITIONS ARE NOT AVAILABLE FOR
       CHILLICOTHE AND FARMINGTON.

MOZ001>031-035>038-043-044-053-054-181900-
...NORTHERN AND WESTERN MISSOURI...

CITY           SKY/WX    TMP DP  RH WIND       PRES   REMARKS
KANSAS CTY INT SUNNY     61  39  44 S7        30.28F
6HR MIN TEMP:  37; 6HR MAX TEMP:  61;

KANSAS C DTWN  SUNNY     64  41  42 VRB3      30.28F
6HR MIN TEMP:  38; 6HR MAX TEMP:  64;

LEE`S SUMMIT   SUNNY     61  40  45 E5        30.29F
6HR MIN TEMP:  36; 6HR MAX TEMP:  62;

ST JOSEPH      SUNNY     60  36  40 SE8       30.28F
6HR MIN TEMP:  29; 6HR MAX TEMP:  61;

CHILLICOTHE      N/A     60  40  47 SE8       30.31F
6HR MIN TEMP:  30; 6HR MAX TEMP:  60;

KIRKSVILLE     SUNNY     60  36  40 SE8       30.32F
6HR MIN TEMP:  32; 6HR MAX TEMP:  60;


$$
MOZ066>068-077>081-088>096-101>105-181900-
...SOUTHWEST MISSOURI...

CITY           SKY/WX    TMP DP  RH WIND       PRES   REMARKS
SPRINGFIELD    SUNNY     67  40  37 S7        30.25F
6HR MIN TEMP:  45; 6HR MAX TEMP:  68;

JOPLIN         SUNNY     65  42  43 S5        30.27F
6HR MIN TEMP:  37; 6HR MAX TEMP:  66;


$$
MOZ032>034-039>042-045>050-055>058-069>072-181900-
...CENTRAL MISSOURI...

CITY           SKY/WX    TMP DP  RH WIND       PRES   REMARKS
COLUMBIA       SUNNY     64  44  48 VRB3      30.30F
6HR MIN TEMP:  40; 6HR MAX TEMP:  65;

JEFFERSON CITY SUNNY     66  41  40 CALM      30.29F
6HR MIN TEMP:  40; 6HR MAX TEMP:  66;

ROLLA          SUNNY     65  42  43 VRB7      30.27F
6HR MIN TEMP:  41; 6HR MAX TEMP:  66;

SEDALIA        SUNNY     62  43  49 SE3       30.30F
6HR MIN TEMP:  39; 6HR MAX TEMP:  63;

WHITEMAN AFB   SUNNY     62  42  47 VRB1      30.29F
OSAGE BEACH    SUNNY     64  41  42 E8        30.30F

$$
MOZ051-052-059>065-181900-
...EAST CENTRAL MISSOURI...

CITY           SKY/WX    TMP DP  RH WIND       PRES   REMARKS
ST LOUIS INTL  NOT AVBL
SPIRIT OF STL  SUNNY     64  42  44 N10       30.31F
6HR MIN TEMP:  40; 6HR MAX TEMP:  65;

ST CHARLES     SUNNY     64  43  46 VRB7      30.30F
6HR MIN TEMP:  42; 6HR MAX TEMP:  65;


$$
MOZ072>076-082>087-097>100-106>115-181900-
...SOUTH CENTRAL AND SOUTHEAST MISSOURI...

CITY           SKY/WX    TMP DP  RH WIND       PRES   REMARKS
CAPE GIRARDEAU MOSUNNY   71  42  35 VRB5      30.26F
6HR MIN TEMP:  48; 6HR MAX TEMP:  72;

FARMINGTON     SUNNY     66  43  42 NE8       30.31S
6HR MIN TEMP:  48; 6HR MAX TEMP:  66;

POPLAR BLUFF   MOSUNNY   70  41  34 E14       30.25F
6HR MIN TEMP:  50; 6HR MAX TEMP:  71;

WEST PLAINS    SUNNY     69  40  34 NE6       30.26F
6HR MIN TEMP:  44; 6HR MAX TEMP:  70;


$$



USA.gov is the U.S. government's official web portal to all federal, state and local government web resources and services.